SCP
1 2 2 3 3 3 2 3 3 4 4 4 4 3 3 2 2 2 2 2 2 2 2 1 2 2 2 2 2 1 1 1 1 1 1 0 0 0 0 0 0 0 0
1 2 2 2 2 2 2 3 4 4 4 4 4 4 3 3 3 3 2 2 1 1 1 1 1 1 1 1 1 1 1 1 1 1 0 0 0 0 0 0 0 0 0
1 1 2 2 2 2 2 3 3 4 4 4 3 3 3 3 3 2 2 1 1 1 1 1 1 1 1 1 1 1 1 1 0 0 0 0 0 0 0 0 0 0 0
1 1 1 1 1 1 1 2 2 2 3 2 2 2 2 2 2 1 1 1 1 1 1 1 1 1 1 1 1 1 1 0 0 0 0 0 0 0 0 0 0 0 0
1 1 1 1 1 1 1 1 1 1 1 1 1 1 1 1 1 1 1 1 1 1 1 1 1 1 1 1 1 0 0 0 0 0 0 0 0 0 0 0 0 0 0
1 1 0 0 0 0 0 0 1 1 1 1 1 1 0 0 0 0 0 0 0 0 0 1 1 1 1 0 0 0 0 0 0 0 0 0 0 0 0 0 0 0 0
0 0 0 0 0 0 0 0 0 0 0 0 0 0 0 0 0 0 0 0 0 0 0 0 0 0 0 0 0 0 0 0 0 0 0 0 0 0 0 0 0 0 0
0 0 0 0 0 0 0 0 0 0 0 0 0 0 0 0 0 0 0 0 0 0 0 0 0 0 0 0 0 0 0 0 0 0 0 0 0 0 0 0 0 0 0
0 0 0 0 0 0 0 0 0 0 0 0 0 0 0 0 0 0 0 0 0 0 0 0 0 0 0 0 0 0 0 0 0 0 0 0 0 0 0 0 0 0 0
0 0 0 0 0 0 0 0 0 0 0 0 0 0 0 0 0 0 0 0 0 0 0 0 0 0 0 0 0 0 0 0 0 0 0 0 0 0 0 0 0 0 0
0 0 0 0 0 0 0 0 0 0 0 0 0 0 0 0 0 0 0 0 0 0 0 0 0 0 0 0 0 0 0 0 0 0 0 0 0 0 0 0 0 0 0
0 0 0 0 0 0 0 0 0 0 0 0 0 0 0 0 0 0 0 0 0 0 0 0 0 0 0 0 0 0 0 0 0 0 0 0 0 0 0 0 0 0 0
0 0 0 0 0 0 0 0 0 0 0 0 0 0 0 0 0 0 0 0 0 0 0 0 0 0 0 0 0 0 0 0 0 0 0 0 0 0 0 0 0 0 0
0 0 0 0 0 0 0 0 0 0 0 0 0 0 0 0 0 0 0 0 0 0 0 0 0 0 0 0 0 0 0 0 0 0 0 0 0 0 0 0 0 0 0
0 0 0 0 0 0 0 0 0 0 0 0 0 0 0 0 0 0 0 0 0 0 0 0 0 0 0 0 0 0 0 0 0 0 0 0 0 0 0 0 0 0 0
0 0 0 0 0 0 0 0 0 0 0 0 0 0 0 0 0 0 0 0 0 0 0 0 0 0 0 0 0 0 0 0 0 0 0 0 0 0 0 0 0 0 0
0 0 0 0 0 0 0 0 0 0 0 0 0 0 0 0 0 0 0 0 0 0 0 0 0 0 0 0 0 0 0 0 0 0 0 0 0 0 0 0 0 0 0
0 0 0 0 0 0 0 0 0 0 0 0 0 0 0 0 0 0 0 0 0 0 0 0 0 0 0 0 0 0 0 0 0 0 0 0 -0 -0 -0 0 0 0 0
0 0 0 0 0 0 0 0 0 0 0 0 0 0 0 0 0 0 0 0 0 0 0 0 0 0 0 0 0 0 0 0 0 0 0 0 -0 -0 -0 0 0 0 0
0 0 0 0 0 0 0 0 0 0 0 0 0 0 0 0 0 0 0 0 0 0 0 0 0 0 0 0 0 0 0 0 0 0 0 0 0 -0 0 0 0 0 0
0 0 0 0 0 0 0 0 0 0 0 0 0 0 0 0 0 0 0 0 0 0 0 0 0 0 0 0 0 0 0 0 0 0 0 0 0 0 0 0 0 0 0
0 0 0 0 0 0 0 0 0 0 0 0 0 0 0 0 0 0 0 0 0 0 0 0 0 0 0 0 0 0 0 0 0 0 0 0 0 -0 -0 0 0 0 0
0 0 0 0 0 0 0 -0 -0 0 0 0 0 0 0 0 0 0 0 0 0 0 0 0 0 0 0 0 0 0 0 0 0 0 0 0 0 -0 0 0 0 0 0
0 0 0 0 0 0 -0 -0 0 0 0 0 0 0 0 0 0 0 0 0 0 0 0 0 0 0 0 0 0 0 0 0 0 0 0 0 0 0 0 0 0 0 0
0 0 0 0 0 -0 -0 -0 0 0 0 0 0 0 0 0 0 0 0 0 0 0 0 0 0 0 0 0 0 0 0 0 0 0 0 0 0 0 0 0 0 0 0
0 0 0 0 -0 -0 -0 0 0 0 0 0 0 0 0 0 0 0 0 0 0 0 0 0 0 0 0 0 0 0 0 0 0 0 0 0 0 0 0 0 0 0 0
Wind_Speed
14 12 13 13 12 12 9 6 2 3 1 1 1 2 2 1 2 3 5 5 4 6 4 4 5 4 4 4 5 4 5 5 5 6 7 6 7 8 8 8 9 10 9
13 13 14 13 12 11 8 6 6 5 4 3 3 2 2 2 4 5 5 5 5 4 4 4 4 4 4 6 5 4 4 6 6 6 7 9 8 7 10 6 7 8 6
13 13 14 15 15 14 12 11 10 10 10 8 5 5 5 5 5 4 3 3 3 3 2 3 3 3 4 5 6 6 7 6 6 6 7 10 12 8 7 9 9 8 7
15 15 15 15 14 14 14 14 13 12 11 10 10 9 7 5 5 4 2 3 4 5 4 4 4 3 4 5 7 7 7 7 9 7 7 8 10 12 12 8 6 9 9
16 15 14 13 13 13 13 12 12 12 11 11 11 9 8 6 5 5 6 5 6 6 6 5 4 5 5 6 7 8 8 7 9 9 9 10 10 11 12 14 8 7 6
15 15 14 12 12 12 11 11 10 10 9 9 9 8 7 7 7 6 6 6 5 6 8 8 7 7 6 7 7 7 9 8 9 9 9 9 10 10 11 13 12 10 8
15 14 13 12 11 11 10 10 9 8 7 7 7 6 6 7 7 7 7 8 7 6 7 9 7 8 8 8 8 8 8 8 9 8 7 7 7 8 9 10 11 12 10
15 14 13 11 10 10 9 8 8 7 7 6 6 5 5 6 7 8 8 9 7 7 8 8 8 9 9 10 8 8 8 7 7 9 8 6 7 6 6 7 8 11 9
15 14 12 10 9 8 7 6 6 5 6 6 6 5 7 7 8 7 7 7 7 9 9 9 8 8 8 8 7 6 7 7 7 7 8 7 6 6 6 6 6 7 9
14 13 10 8 7 6 6 5 5 5 6 7 7 8 8 8 8 8 8 8 8 8 8 8 8 7 7 7 7 6 6 7 7 6 8 7 6 6 6 6 6 6 8
13 11 9 8 6 5 5 5 7 7 8 8 7 7 8 9 9 8 9 8 8 8 8 8 7 8 8 7 6 7 7 8 8 8 9 9 8 7 6 5 6 6 7
12 10 8 7 6 6 6 7 8 8 8 8 8 8 8 8 8 9 9 8 8 7 8 8 8 9 8 6 7 9 10 11 12 11 10 10 9 8 7 6 7 7 7
10 9 8 6 6 6 7 8 8 8 9 9 9 8 8 8 8 8 8 8 8 8 7 7 8 8 7 8 10 11 12 13 13 12 11 11 10 10 8 7 7 7 7
8 7 6 6 6 7 8 8 8 8 8 8 8 7 7 7 7 8 8 8 8 7 7 7 7 7 8 10 12 14 14 14 13 13 12 11 10 10 8 7 7 7 8
7 5 5 7 6 7 7 8 7 7 8 8 8 7 7 7 7 7 7 7 7 8 7 7 7 8 6 10 13 15 16 15 15 13 11 11 13 11 8 9 9 9 9
6 6 7 7 7 7 7 7 7 7 7 7 8 7 7 7 7 6 6 6 6 7 7 7 8 8 7 9 17 19 16 15 14 12 10 10 9 12 15 18 19 18 14
7 8 8 8 7 6 5 6 6 6 6 6 7 7 7 7 7 8 7 7 7 7 7 6 6 7 5 8 14 24 18 14 11 11 10 9 10 11 12 17 21 19 19
9 8 7 7 5 4 4 5 6 6 6 6 7 7 7 8 7 7 7 7 6 6 5 5 6 6 6 9 13 23 16 12 12 12 11 9 10 12 15 15 15 13 11
8 7 5 5 4 4 4 5 5 5 6 6 6 6 7 8 8 7 7 6 6 5 5 5 5 6 6 9 13 19 13 11 13 13 12 10 11 17 20 15 14 12 6
7 5 4 4 3 3 4 5 5 5 6 6 6 6 6 7 8 6 6 6 5 5 6 6 5 6 7 9 12 18 11 12 12 11 11 12 15 20 18 12 11 9 4
6 4 4 3 3 2 3 4 5 5 6 6 6 6 5 6 6 4 4 5 5 5 5 6 5 6 7 9 13 17 12 12 12 11 10 10 19 19 16 12 8 7 3
6 4 3 2 1 2 3 5 5 6 6 6 7 6 5 7 6 4 4 4 3 5 5 5 6 6 7 9 12 17 18 16 12 10 9 11 18 16 12 10 11 10 6
5 3 1 1 0 1 3 5 5 6 7 7 6 6 7 6 5 4 4 3 3 5 7 8 9 8 8 9 14 16 18 18 11 10 16 17 15 11 8 12 14 9 6
4 1 1 1 1 1 3 4 5 6 7 7 7 6 6 4 4 3 2 3 6 8 9 10 10 10 9 10 11 12 12 14 13 11 13 13 11 9 8 8 8 8 7
3 2 2 1 1 2 3 4 5 6 6 7 6 8 7 5 5 5 7 9 11 10 9 9 9 9 9 12 17 13 11 11 11 11 7 7 7 7 6 6 7 7 7
4 3 1 1 2 3 3 5 5 6 6 7 7 8 6 6 6 6 9 15 11 12 10 7 7 8 10 14 17 19 19 17 16 9 7 8 7 7 7 6 6 7 7
Wind_Direction
84 79 76 75 82 98 121 172 181 80 66 108 175 163 152 170 126 96 74 59 41 29 3 351 350 334 342 344 316 311 313 304 295 290 285 279 279 282 277 269 266 265 267
93 84 82 84 84 92 97 82 61 49 18 37 16 24 33 39 60 59 61 43 29 10 338 17 330 340 336 308 302 318 301 292 290 293 301 297 287 273 282 291 295 306 318
85 82 75 71 72 71 67 66 57 49 39 32 26 31 26 22 35 37 45 26 343 316 312 304 297 312 304 302 327 309 295 305 310 299 290 290 289 291 290 289 290 292 292
81 77 75 73 73 74 72 68 61 53 45 41 36 37 38 27 17 4 25 346 323 315 312 299 298 305 306 310 309 323 335 315 302 296 289 287 295 298 296 277 275 279 278
91 88 85 84 82 79 75 69 63 57 49 45 42 38 31 15 359 350 345 343 331 329 326 327 341 342 326 322 325 320 314 308 300 299 300 300 299 294 289 291 292 283 282
104 102 98 93 86 81 77 72 65 59 52 46 40 32 20 357 336 331 332 338 333 325 329 338 358 342 329 323 318 312 306 302 300 300 298 298 298 299 298 299 303 301 306
121 117 110 98 87 78 72 67 61 53 47 43 35 20 6 331 330 350 346 336 321 318 334 346 339 334 330 323 317 314 309 306 306 306 301 301 298 299 299 299 301 302 304
123 115 108 102 94 81 67 58 52 38 27 23 19 356 353 348 345 348 333 316 315 326 339 342 338 330 322 316 317 311 306 306 309 303 301 294 289 288 288 289 296 296 293
119 117 111 102 93 85 72 54 45 31 18 2 0 350 7 355 341 329 317 325 334 324 336 330 318 314 311 306 304 298 297 297 293 292 291 288 285 283 279 277 273 280 288
124 117 113 107 102 100 91 64 46 18 15 4 4 356 353 340 332 326 329 328 327 326 319 316 316 311 305 300 298 299 297 296 292 288 285 283 280 278 278 276 274 270 275
131 128 126 118 103 78 58 38 24 15 14 6 3 353 344 340 336 334 336 335 328 323 318 317 313 309 305 306 310 312 315 315 309 303 298 293 289 282 278 274 270 268 267
134 130 117 100 80 56 38 30 17 13 5 358 354 353 349 347 343 339 335 328 322 320 318 315 312 312 320 334 347 347 339 326 316 308 302 296 291 284 277 270 267 266 260
120 111 98 80 60 38 35 22 14 12 358 352 349 349 347 343 337 330 327 323 320 319 318 319 323 332 353 13 6 349 335 321 311 306 302 296 290 285 279 275 272 270 269
122 104 90 76 51 40 30 13 11 5 352 347 342 342 340 332 324 320 318 318 319 319 328 333 340 356 21 22 0 344 329 317 310 302 295 292 289 284 285 287 282 281 278
128 107 81 63 42 34 22 14 6 358 347 338 335 334 331 321 315 315 318 323 328 336 340 343 353 3 28 19 358 343 331 318 306 300 299 302 305 312 315 306 298 291 280
110 84 66 58 46 29 13 6 355 348 338 331 327 330 326 322 325 324 332 337 340 341 344 350 359 11 30 6 356 349 328 313 307 312 316 314 318 335 324 314 305 294 281
77 63 56 58 49 35 11 354 342 337 334 333 333 340 341 341 345 343 347 345 344 343 345 354 10 20 40 6 353 348 331 316 320 324 321 324 333 334 327 314 307 296 283
64 56 44 48 43 30 9 344 334 335 337 346 350 354 350 345 340 337 342 342 339 338 339 355 13 13 21 12 355 347 332 325 329 323 320 328 336 335 327 314 306 300 289
71 65 49 42 37 14 357 336 331 338 347 353 352 354 344 335 328 334 340 335 332 334 338 354 4 4 9 13 357 352 332 331 328 323 327 337 339 331 328 319 312 314 315
71 57 40 36 29 13 337 324 325 337 346 342 337 332 329 325 319 334 334 330 328 338 338 354 3 13 10 10 5 350 337 333 328 323 327 337 337 331 329 322 318 323 342
81 51 32 24 21 344 320 316 321 338 334 323 314 311 312 304 304 326 318 323 340 343 344 359 5 25 14 3 4 348 340 334 326 326 330 330 329 331 332 332 333 339 8
77 40 18 23 18 312 310 314 327 331 319 310 307 306 295 297 306 300 306 323 344 346 356 3 357 8 5 2 356 343 332 329 328 327 326 324 326 333 348 356 360 13 61
71 42 15 75 197 266 303 320 327 327 319 314 312 299 290 284 283 291 310 319 347 0 1 3 356 356 357 356 352 342 331 333 335 330 327 329 336 348 1 7 13 26 62
82 97 114 120 141 304 311 305 325 328 324 323 316 308 301 304 309 307 328 358 19 21 15 11 357 356 356 357 350 341 337 339 339 334 326 332 353 6 9 12 23 38 55
103 114 102 92 7 316 312 340 354 332 332 324 333 331 329 347 332 28 42 58 59 60 42 19 359 2 358 347 336 338 339 337 329 326 334 1 4 7 15 29 35 44 58
132 132 129 24 340 327 3 22 2 347 350 343 359 339 343 356 0 44 72 74 95 88 76 45 10 12 360 336 340 344 340 337 337 347 3 5 4 7 16 32 43 49 57